Wind_Speed
23 22 21 20 20 19 17 17 17 16 15 15 15 14 14 14 13 13 14 15 15 14 13 15 16 15 16 17 17 16 15 14 13 14 17 17 18 18 15 14 12 7 8 13 13 12 15 17 13 10 10 10 10 9 8 8 8 8 7 7 6 6 5
23 22 20 19 20 19 18 17 17 16 15 15 15 15 15 15 14 14 15 15 15 14 14 15 16 16 18 18 17 17 16 15 14 14 17 17 17 17 16 15 12 10 12 14 12 12 14 18 17 15 14 12 11 10 9 9 9 8 7 6 6 6 5
23 21 19 19 20 20 19 18 18 17 15 16 16 17 16 15 15 15 15 15 15 14 14 15 16 17 17 17 17 17 16 16 15 15 15 16 16 16 15 15 13 14 16 16 15 14 15 17 18 18 17 15 14 12 11 10 9 9 7 5 6 6 6
21 20 19 19 20 21 21 19 18 18 18 18 18 17 16 15 15 15 14 15 15 15 15 15 16 16 16 16 16 16 16 16 16 15 14 15 17 16 15 14 14 14 15 15 16 15 16 16 16 19 19 15 14 13 12 10 8 8 8 7 6 6 6
20 19 19 19 20 21 21 19 19 20 20 19 18 17 15 14 16 16 16 16 16 16 16 16 15 15 16 16 15 15 15 15 16 16 15 16 17 16 15 14 13 13 13 12 13 14 14 13 13 19 20 16 16 14 13 12 10 9 8 7 6 5 5
19 19 19 18 19 20 20 20 22 22 22 20 18 17 15 16 18 18 18 17 17 17 16 16 16 16 15 15 15 15 16 16 16 15 15 16 16 15 15 14 13 13 13 11 11 12 13 12 13 19 20 17 16 16 15 13 12 12 8 6 4 4 4
20 20 19 18 18 19 20 22 23 23 22 21 19 18 17 17 19 18 18 17 16 16 16 16 16 16 15 15 15 15 16 16 15 14 15 15 14 14 14 15 14 13 13 13 12 13 13 13 15 20 20 17 16 15 16 14 12 12 10 6 4 2 3
19 19 17 17 18 19 21 23 24 23 22 20 19 19 17 17 18 18 17 17 16 15 16 15 16 16 15 15 16 15 15 15 15 15 15 15 14 14 14 15 14 14 15 15 14 13 13 13 14 17 18 19 19 18 16 15 14 12 9 7 5 3 3
19 18 17 18 19 20 23 25 24 22 21 19 19 18 17 17 17 18 17 18 17 16 16 15 15 16 16 16 16 15 15 15 15 15 15 15 15 15 14 14 14 15 15 15 14 14 12 12 12 15 16 16 17 20 20 17 16 15 10 6 6 6 6
19 17 18 20 21 22 25 25 23 23 21 19 19 19 18 17 17 17 17 17 17 16 16 16 16 16 16 16 15 15 15 15 15 15 15 15 15 14 14 14 14 15 15 14 14 13 12 12 13 15 17 14 11 14 20 21 18 15 12 9 7 7 7
19 18 18 20 22 24 26 23 22 24 22 19 20 21 20 18 18 17 17 17 16 17 17 17 16 15 15 15 14 14 14 14 15 15 13 13 14 14 14 14 15 16 16 16 15 14 14 14 14 15 18 17 12 8 10 16 17 14 11 11 9 5 3
18 18 19 21 23 25 25 22 21 22 20 19 21 23 21 19 19 18 16 16 16 16 17 17 16 15 15 14 14 15 14 14 15 14 13 14 15 15 15 15 16 17 17 17 16 15 16 15 15 17 18 18 16 10 4 7 11 12 12 11 10 6 3
17 19 20 22 23 25 24 21 20 20 19 20 21 22 21 19 19 18 16 16 17 17 17 16 16 16 15 14 14 15 15 15 15 14 13 14 15 16 16 15 16 18 18 17 17 16 16 16 15 15 17 16 15 13 10 7 5 7 11 11 10 8 3
18 20 22 24 24 24 24 22 20 20 20 20 20 21 20 19 19 17 16 16 18 18 17 16 16 16 16 15 15 15 14 14 14 13 13 14 15 16 16 16 16 18 19 19 18 18 18 17 15 14 16 16 15 14 14 13 9 6 10 12 11 10 5
20 22 24 26 25 24 25 23 22 21 20 20 20 20 19 20 19 16 15 17 19 19 16 15 16 17 16 16 16 14 14 13 13 13 13 14 16 17 17 17 16 17 19 19 18 19 20 19 16 16 17 17 16 16 16 18 16 11 9 10 12 12 8
22 23 26 28 27 25 25 24 23 22 21 20 19 19 20 21 19 15 15 19 20 18 16 15 16 17 17 16 16 15 13 12 11 10 12 13 15 17 17 17 17 16 18 19 17 16 17 17 16 16 17 17 18 20 21 21 19 14 10 9 11 12 11
22 24 27 29 28 26 25 25 24 23 22 21 19 20 21 19 15 14 18 22 21 18 17 17 18 18 16 15 14 12 11 11 9 6 9 13 15 16 18 17 16 16 17 17 15 14 14 15 16 16 15 13 14 18 22 22 19 15 12 10 9 9 10
22 25 28 30 29 27 26 25 25 24 23 22 20 21 20 17 13 15 21 23 22 19 18 17 18 17 14 12 11 11 12 11 8 5 7 13 15 16 18 17 16 16 16 16 15 14 13 13 14 14 13 11 9 12 19 22 19 16 12 8 7 8 10
24 28 31 31 29 28 27 25 25 26 24 22 22 21 19 16 13 15 20 23 22 21 19 18 18 16 14 12 12 13 14 11 8 6 8 13 15 15 16 16 16 17 17 17 14 12 11 12 13 13 13 11 8 9 14 17 17 15 10 6 6 7 9
26 31 33 31 29 29 27 26 26 26 24 23 23 21 18 16 15 14 18 22 22 21 20 18 18 18 16 15 15 14 14 12 9 7 8 11 14 16 17 17 17 17 18 16 12 10 10 10 12 13 12 10 8 8 11 13 14 15 12 8 7 7 8
26 32 32 30 31 30 28 28 28 25 24 25 24 21 19 19 18 16 19 22 20 19 20 18 17 18 17 16 17 15 14 13 11 9 9 10 14 16 17 16 15 16 16 13 10 10 10 9 9 11 11 9 8 9 11 13 14 14 12 10 8 8 9
25 31 32 31 31 30 29 29 27 25 26 27 24 22 21 21 19 17 18 21 19 17 19 17 14 16 18 18 17 16 14 14 13 11 10 11 14 15 15 14 14 13 13 11 9 9 9 8 7 8 10 10 10 10 11 12 12 12 12 12 11 10 11
26 30 32 32 30 29 29 28 26 26 28 28 25 24 23 21 19 18 18 20 19 17 18 17 14 13 15 17 17 15 14 15 16 13 12 13 16 16 16 15 14 13 12 11 9 8 8 8 7 6 9 11 11 10 10 10 10 10 12 13 14 13 14
27 31 32 31 30 29 28 26 28 29 29 28 26 25 24 21 19 19 19 19 18 17 17 17 16 12 12 16 17 15 15 17 17 15 13 15 17 15 15 15 15 14 13 11 9 8 8 8 8 6 7 10 10 10 10 10 10 10 10 12 13 14 13
28 31 32 32 31 29 27 28 30 31 30 29 27 26 24 22 20 20 20 20 18 17 16 17 16 13 13 16 18 16 16 17 18 18 16 16 17 16 15 15 15 14 13 12 11 10 8 8 8 7 6 7 8 8 9 9 10 10 10 11 12 12 11
29 31 32 32 31 30 29 31 32 31 30 29 28 26 25 23 21 20 20 20 19 17 17 17 17 15 13 16 18 18 17 16 17 18 17 16 18 18 16 15 15 14 14 13 13 12 11 10 9 8 8 8 8 9 9 10 10 11 12 12 13 13 13
28 32 33 33 32 31 31 33 33 31 30 29 27 26 25 23 21 21 20 20 19 19 18 17 17 16 14 15 18 19 19 18 17 17 16 16 17 17 16 15 15 15 14 14 13 12 12 11 9 9 9 10 10 10 11 11 12 13 14 14 15 15 16
28 30 33 34 34 33 32 32 31 30 29 28 27 27 26 23 21 21 21 20 19 19 19 18 18 18 16 15 17 19 19 19 18 17 17 17 17 17 16 15 15 15 15 14 13 11 9 8 6 6 7 8 9 10 12 13 13 14 15 16 16 17 18
28 30 32 33 32 31 31 28 27 28 29 28 27 26 25 23 22 22 22 20 20 20 20 19 19 18 18 17 17 18 18 19 19 19 18 17 16 17 16 15 15 16 12 10 10 9 7 5 4 4 6 8 10 12 13 14 15 16 17 18 19 20 21
27 30 31 30 27 28 29 26 25 28 29 29 28 27 25 24 23 23 22 20 20 20 21 20 19 18 18 18 18 19 19 19 20 20 19 18 16 16 15 15 14 14 10 7 9 10 11 11 9 7 9 11 13 14 16 17 18 19 20 21 22 23 24
25 28 29 28 26 27 31 31 29 29 29 30 30 28 27 26 24 22 21 20 20 20 20 20 19 18 17 17 17 18 18 18 19 20 19 17 16 15 13 10 9 9 9 8 9 11 13 14 14 13 14 16 17 17 18 19 20 20 21 22 23 23 23
19 26 30 30 29 30 32 33 32 31 31 31 30 28 27 26 24 22 20 19 18 18 18 19 18 17 17 16 16 16 17 17 18 16 13 10 11 12 11 9 9 9 9 9 10 10 11 12 14 16 18 20 21 21 21 21 21 21 20 20 20 21 21
14 18 23 26 28 28 28 29 29 29 29 30 31 29 27 25 24 22 19 18 17 16 16 17 18 17 18 18 18 17 17 18 17 15 14 13 14 13 13 12 13 12 12 12 12 11 12 13 14 15 18 21 22 23 22 21 21 21 21 21 21 22 23
15 16 17 19 21 21 21 21 19 18 19 21 23 24 22 21 20 18 15 14 14 14 15 15 15 16 17 18 18 17 16 15 13 11 12 13 14 14 14 14 14 14 14 14 14 15 15 16 16 17 19 20 21 21 20 21 22 22 22 22 21 22 23
12 11 12 13 14 15 16 15 13 12 13 13 14 14 13 13 14 14 13 13 13 13 13 12 12 12 13 13 14 14 13 12 11 10 11 12 14 14 14 14 14 14 14 14 15 16 16 16 17 18 20 20 19 19 19 20 20 20 19 18 18 18 19
14 12 11 9 7 8 9 9 9 10 10 9 9 10 9 10 11 12 13 14 13 12 11 11 10 9 9 9 10 10 10 9 9 10 11 12 13 14 14 14 13 13 13 13 14 14 14 14 15 17 17 17 16 16 16 16 15 14 14 14 14 14 14
17 16 14 12 11 10 9 8 8 8 9 9 10 11 11 10 10 12 13 13 12 11 9 9 9 9 9 9 8 8 8 9 9 10 11 12 12 13 13 12 11 11 12 12 12 11 12 12 13 13 13 13 12 12 11 11 11 11 11 11 11 11 12
Wind_Direction
214 215 214 211 210 210 207 203 201 201 201 200 197 197 194 189 186 186 188 186 180 178 180 183 188 189 187 193 199 202 203 201 205 207 199 192 193 197 199 200 209 232 226 211 205 194 179 171 176 183 177 181 183 181 185 183 185 192 193 198 198 194 198
216 219 217 210 207 206 204 199 197 198 199 197 194 191 185 180 180 183 184 181 179 181 182 184 188 188 189 194 199 201 202 202 202 204 207 207 200 197 200 197 203 211 201 200 208 214 195 173 173 182 177 176 180 181 183 182 184 187 189 188 179 177 186
217 219 216 210 205 201 198 196 194 196 195 189 186 184 181 178 178 182 183 180 180 184 183 184 186 186 190 195 199 204 204 200 200 200 206 213 206 204 208 202 201 197 191 195 199 202 198 182 177 178 174 173 175 173 170 173 176 170 164 160 155 160 168
221 220 215 209 204 199 196 196 194 193 189 185 184 184 182 180 180 183 182 180 181 185 184 183 185 186 189 193 196 203 205 202 201 199 201 210 209 209 213 213 214 209 202 203 199 194 194 190 182 174 170 172 174 167 160 162 165 157 146 144 149 157 163
224 222 215 209 206 200 196 195 191 187 185 184 185 187 186 185 184 183 183 183 182 184 184 184 188 191 191 191 193 198 202 204 205 201 198 205 211 212 212 214 218 219 219 218 207 195 192 201 191 170 165 167 167 163 159 159 159 155 142 137 144 152 164
224 222 216 214 210 202 196 193 187 183 184 185 186 190 193 192 188 185 186 186 184 183 183 183 188 194 195 193 192 194 198 203 207 206 203 206 212 213 210 211 211 212 217 218 212 199 192 202 192 170 164 166 167 162 160 163 163 160 151 135 136 139 148
221 219 218 217 209 201 195 190 186 184 185 187 190 194 195 191 188 188 189 188 186 183 181 184 188 193 198 196 194 195 197 201 205 207 207 208 212 210 208 210 207 205 210 213 212 203 194 196 191 178 168 165 167 164 162 168 172 170 166 155 140 117 124
217 218 217 211 204 200 192 186 186 187 187 189 194 195 191 187 186 187 190 190 189 185 182 185 188 191 196 198 198 198 196 199 203 205 207 210 213 210 206 209 208 204 207 211 210 202 200 201 196 191 180 167 165 166 167 175 183 186 182 159 141 130 130
214 213 208 201 198 195 187 184 187 189 189 193 196 194 191 188 186 186 189 192 193 188 184 186 186 186 191 196 198 196 193 195 199 204 208 211 213 210 204 205 207 206 206 208 206 200 203 208 204 202 195 181 172 169 172 180 191 196 195 173 145 142 150
213 207 200 194 192 189 185 186 191 191 193 199 200 197 194 192 190 188 188 190 192 189 186 186 184 183 187 193 196 193 191 193 197 202 206 208 207 205 203 203 203 204 205 204 203 202 203 204 206 204 197 193 191 178 176 183 193 196 190 182 168 150 155
208 201 196 192 187 187 187 189 192 192 194 201 202 199 196 194 193 191 187 186 187 187 186 185 184 183 184 188 191 188 189 194 196 198 200 201 201 200 202 202 199 199 202 203 202 201 197 192 194 195 189 188 193 187 175 181 189 192 187 181 183 184 190
208 197 192 191 188 189 191 189 189 193 195 199 200 199 198 194 190 189 185 182 183 185 185 183 183 183 183 184 183 181 185 192 196 196 196 196 198 200 200 198 196 196 198 202 200 194 190 187 184 186 187 189 192 193 185 176 180 189 195 194 192 199 240
207 196 192 191 189 190 193 191 190 195 197 194 194 196 196 190 189 189 185 181 182 181 180 181 181 182 183 182 179 180 183 188 192 195 195 195 195 198 199 195 194 194 194 197 197 194 193 190 186 187 193 198 200 200 202 201 192 184 193 204 206 199 198
201 196 194 193 189 187 189 191 192 195 195 193 192 193 193 191 190 189 183 179 179 176 173 174 176 178 179 177 177 180 183 185 190 193 193 193 193 194 195 195 195 192 190 193 194 196 201 200 198 198 199 203 208 211 214 217 220 204 193 196 202 207 205
202 199 194 191 189 185 185 189 191 194 195 194 195 196 194 190 188 185 178 175 175 173 169 167 169 173 174 172 172 174 175 178 186 193 193 191 191 192 192 194 195 191 192 194 192 195 201 202 201 200 200 208 219 224 229 230 224 221 216 200 195 206 217
205 201 193 190 188 184 186 189 190 194 196 194 195 198 193 185 183 185 178 173 172 170 165 161 160 161 161 160 160 159 160 163 170 186 195 193 192 193 191 190 191 193 197 196 192 195 198 196 199 203 205 219 234 237 239 235 225 227 235 217 202 209 221
207 198 191 191 190 186 188 190 190 193 195 192 193 192 186 182 185 186 178 172 169 167 164 161 156 154 155 157 161 164 165 162 158 173 195 196 197 195 191 191 190 190 195 193 188 191 191 191 201 208 209 220 234 235 231 225 223 235 244 231 220 223 228
208 196 192 194 192 189 190 191 191 192 192 192 190 182 178 182 184 179 176 173 168 167 167 162 158 160 164 166 170 177 179 174 168 176 194 197 199 195 190 190 189 185 183 179 177 182 185 191 199 203 207 211 209 211 214 216 223 237 241 232 232 232 227
208 196 194 195 193 191 190 191 190 189 190 191 184 175 175 177 168 163 170 172 168 168 169 166 166 169 169 163 161 164 167 166 164 170 183 187 190 191 188 187 186 181 174 171 173 178 185 194 199 201 208 211 199 193 202 210 219 224 225 223 229 233 229
207 198 196 195 193 192 191 191 188 187 191 187 179 176 176 168 157 153 162 166 167 171 173 170 172 176 170 159 157 158 157 159 161 158 166 177 183 187 186 183 181 177 172 174 179 183 184 187 194 199 203 203 197 191 194 201 208 215 221 223 224 232 237
208 200 198 196 194 192 190 189 187 188 190 182 175 178 174 164 161 159 160 163 167 173 175 174 175 180 178 166 163 167 166 167 171 162 156 169 179 182 179 175 173 172 174 182 189 191 190 187 188 193 191 190 187 184 188 195 204 212 219 224 232 238 240
212 204 201 199 198 193 188 187 188 188 184 177 174 177 174 170 169 164 163 167 170 171 175 177 175 178 184 179 173 176 174 171 173 165 158 167 174 171 166 166 169 170 176 185 188 193 199 197 193 187 184 189 193 193 193 194 198 204 209 218 230 239 242
213 205 202 200 199 194 189 187 183 179 176 173 175 176 172 173 173 168 168 171 172 173 175 179 177 173 181 182 176 174 170 166 168 165 158 165 171 170 169 173 174 175 181 187 188 196 201 201 202 192 183 189 196 202 204 199 198 202 207 216 224 230 239
212 202 200 200 198 193 190 185 175 172 173 173 176 176 172 173 176 175 174 173 174 176 176 178 178 172 172 174 171 169 167 166 168 169 163 163 168 169 173 179 179 179 186 191 195 204 208 208 211 205 193 193 197 206 212 211 210 211 212 218 222 226 233
209 201 198 198 195 189 190 187 177 173 175 176 176 176 174 173 175 178 179 177 176 178 177 176 177 178 176 173 170 171 172 169 168 171 170 170 173 173 172 177 180 180 187 194 200 206 211 212 214 214 212 209 208 215 222 225 226 222 224 230 230 229 234
205 199 197 195 191 189 193 192 183 176 177 178 178 179 177 175 176 179 180 180 179 180 179 177 180 183 182 180 178 177 176 173 170 170 171 172 177 181 180 181 184 186 192 198 202 206 209 212 217 221 227 232 233 233 231 233 236 237 241 248 248 246 247
203 196 195 191 187 188 194 190 180 178 180 179 180 181 179 178 178 178 180 181 181 180 179 178 181 183 181 181 183 182 183 182 178 176 177 176 178 183 187 191 196 199 203 205 207 210 210 212 220 224 227 234 241 245 246 246 248 251 254 257 259 260 259
201 194 190 187 185 187 190 184 177 178 180 178 179 181 180 179 178 177 179 181 180 179 177 175 177 181 181 182 184 187 191 192 188 183 181 180 182 186 192 198 201 203 203 197 193 196 197 198 210 223 232 241 248 253 256 258 261 263 263 263 264 266 268
192 190 185 184 184 184 184 180 177 178 177 175 177 179 178 177 176 176 176 178 179 179 176 173 174 178 181 183 185 187 190 192 190 186 182 181 183 185 189 194 199 205 205 183 172 187 203 205 219 255 264 262 261 262 264 265 267 268 268 269 270 272 273
177 183 181 178 178 179 179 180 181 179 176 176 176 176 175 172 170 172 173 174 179 180 176 173 174 177 180 183 185 185 184 182 181 180 178 178 179 181 185 191 200 214 219 193 182 204 221 229 245 274 287 282 274 268 268 269 269 269 270 271 272 273 274
163 170 174 176 182 182 177 176 179 178 176 175 172 171 171 168 165 167 168 171 178 182 180 178 178 181 185 187 192 195 194 189 184 177 170 169 174 179 185 194 207 217 217 205 202 210 218 228 243 260 278 287 285 277 273 272 271 271 271 271 273 274 276
147 157 163 169 178 180 174 170 172 174 172 170 166 165 167 167 164 163 165 169 175 181 184 183 182 187 192 195 202 208 211 212 210 199 188 191 199 198 205 225 237 234 228 227 230 230 229 236 248 258 269 279 283 281 277 276 275 274 273 272 272 272 273
93 122 138 146 152 157 157 154 156 159 158 155 155 157 160 163 163 161 163 167 171 177 183 186 187 193 201 206 211 217 223 231 237 233 230 239 241 231 230 238 240 240 242 246 249 250 248 249 255 263 270 273 274 276 276 276 277 277 276 275 274 272 272
81 84 94 108 119 126 129 130 133 138 141 145 149 151 154 160 165 165 167 173 178 182 186 190 193 195 199 205 210 216 222 229 235 235 229 229 229 228 229 232 235 241 248 253 255 255 256 259 262 267 270 270 270 273 273 274 275 276 277 277 276 276 276
111 102 95 99 104 107 111 117 123 129 136 145 150 152 157 168 172 175 181 185 186 186 185 189 192 191 191 195 201 207 214 216 218 221 220 219 220 225 231 235 240 247 251 255 257 259 262 268 270 271 271 271 271 271 270 270 272 273 274 274 274 275 277
119 126 130 137 132 116 113 118 122 128 136 145 150 154 161 168 169 172 175 174 174 177 179 181 185 189 194 199 202 207 214 219 222 225 229 232 234 237 240 243 246 250 253 257 260 263 265 266 267 269 269 269 268 267 264 263 262 262 264 266 270 275 279
105 114 125 143 155 156 161 170 166 162 164 167 171 170 163 159 160 160 158 156 157 160 162 165 174 184 193 199 202 206 212 217 222 225 230 235 238 240 244 246 247 249 253 255 256 256 256 258 262 265 267 267 265 261 256 252 249 250 257 265 275 284 288
Height
1512 1514 1517 1519 1521 1523 1526 1527 1529 1531 1532 1533 1534 1535 1536 1537 1538 1539 1541 1542 1543 1544 1545 1546 1547 1549 1550 1551 1552 1553 1554 1555 1556 1557 1557 1557 1557 1557 1558 1558 1559 1559 1559 1560 1561 1561 1562 1564 1566 1568 1569 1570 1570 1571 1571 1572 1572 1573 1573 1574 1574 1574 1574
1512 1514 1517 1519 1521 1522 1524 1526 1528 1530 1531 1533 1534 1535 1536 1536 1538 1539 1541 1542 1542 1544 1545 1546 1547 1548 1550 1551 1552 1553 1554 1555 1556 1557 1558 1557 1557 1557 1557 1557 1558 1558 1559 1560 1561 1561 1561 1563 1565 1566 1568 1569 1570 1571 1571 1572 1572 1573 1573 1574 1574 1574 1574
1513 1515 1517 1519 1520 1522 1524 1525 1527 1529 1530 1532 1533 1534 1535 1536 1538 1539 1540 1541 1542 1544 1545 1546 1547 1548 1549 1551 1552 1553 1554 1555 1556 1557 1557 1558 1557 1557 1557 1557 1557 1557 1558 1559 1560 1560 1561 1562 1563 1565 1566 1568 1569 1570 1571 1572 1572 1573 1574 1574 1574 1574 1574
1515 1516 1518 1519 1521 1522 1524 1525 1526 1528 1529 1531 1532 1533 1535 1536 1537 1539 1540 1541 1542 1544 1545 1546 1547 1548 1549 1551 1551 1552 1553 1554 1555 1556 1557 1557 1557 1557 1557 1557 1557 1557 1557 1558 1559 1559 1560 1561 1562 1564 1566 1568 1569 1570 1571 1572 1573 1573 1574 1574 1574 1574 1574
1515 1517 1518 1520 1521 1522 1524 1525 1526 1528 1529 1530 1532 1533 1534 1536 1537 1538 1539 1541 1542 1543 1545 1546 1547 1548 1549 1550 1551 1552 1553 1554 1555 1556 1556 1556 1557 1556 1556 1557 1557 1558 1558 1558 1559 1559 1560 1561 1562 1563 1565 1567 1569 1570 1571 1571 1572 1573 1574 1574 1574 1574 1575
1515 1517 1518 1519 1521 1523 1524 1525 1526 1528 1529 1530 1531 1532 1534 1535 1537 1538 1539 1540 1542 1543 1544 1546 1547 1548 1549 1550 1550 1551 1552 1553 1554 1555 1556 1556 1556 1556 1556 1556 1557 1558 1558 1559 1560 1560 1561 1562 1562 1563 1565 1567 1569 1570 1571 1571 1572 1573 1574 1574 1574 1574 1575
1514 1516 1517 1519 1521 1522 1524 1525 1526 1528 1529 1530 1531 1533 1534 1535 1537 1538 1539 1540 1541 1543 1544 1545 1547 1548 1549 1549 1550 1551 1551 1552 1553 1554 1555 1555 1555 1556 1555 1556 1557 1558 1559 1559 1560 1560 1561 1562 1562 1563 1564 1567 1569 1570 1570 1571 1572 1572 1573 1573 1574 1574 1574
1513 1515 1517 1518 1520 1522 1523 1525 1526 1528 1529 1530 1532 1533 1534 1535 1536 1538 1539 1540 1541 1542 1543 1545 1546 1547 1548 1549 1549 1550 1550 1551 1552 1553 1553 1554 1554 1555 1555 1556 1557 1557 1558 1559 1560 1561 1561 1562 1563 1563 1563 1565 1568 1570 1571 1571 1572 1572 1573 1573 1573 1574 1574
1512 1514 1516 1518 1520 1521 1522 1524 1526 1527 1529 1531 1532 1533 1534 1535 1536 1537 1538 1539 1541 1542 1543 1544 1545 1546 1547 1548 1549 1549 1550 1550 1551 1551 1552 1553 1553 1554 1555 1555 1556 1557 1558 1559 1560 1561 1562 1563 1563 1564 1564 1563 1564 1567 1570 1571 1572 1572 1573 1573 1573 1573 1574
1512 1513 1515 1517 1519 1521 1522 1524 1525 1527 1529 1530 1532 1533 1534 1535 1536 1537 1538 1539 1540 1541 1543 1543 1544 1545 1546 1547 1548 1548 1549 1550 1550 1551 1551 1552 1553 1553 1554 1555 1556 1557 1558 1559 1560 1561 1562 1563 1563 1564 1565 1565 1564 1565 1567 1569 1570 1571 1572 1573 1574 1574 1575
1511 1513 1515 1517 1518 1520 1522 1524 1525 1527 1528 1530 1531 1532 1534 1535 1536 1537 1538 1539 1540 1541 1542 1543 1544 1545 1546 1546 1547 1548 1549 1549 1550 1550 1551 1552 1552 1553 1554 1555 1556 1557 1558 1559 1559 1561 1562 1562 1563 1564 1565 1566 1566 1566 1566 1567 1569 1571 1572 1573 1574 1575 1575
1511 1513 1515 1516 1517 1519 1521 1523 1525 1526 1528 1529 1531 1532 1533 1534 1535 1536 1537 1538 1539 1540 1542 1543 1544 1544 1545 1546 1546 1547 1548 1549 1549 1550 1550 1551 1552 1552 1553 1554 1556 1557 1558 1559 1559 1560 1562 1563 1563 1564 1565 1566 1567 1568 1568 1568 1569 1571 1572 1573 1574 1575 1575
1510 1512 1514 1515 1516 1518 1520 1522 1524 1526 1528 1529 1530 1532 1533 1534 1535 1536 1537 1538 1539 1540 1541 1542 1543 1543 1544 1545 1546 1547 1547 1548 1549 1550 1550 1551 1552 1552 1553 1554 1556 1557 1558 1559 1559 1560 1561 1563 1564 1565 1566 1567 1568 1569 1569 1570 1570 1570 1571 1573 1574 1575 1575
1508 1510 1512 1513 1515 1516 1519 1521 1523 1526 1527 1529 1530 1531 1532 1533 1534 1536 1537 1537 1538 1539 1540 1541 1542 1542 1543 1544 1545 1546 1547 1548 1549 1549 1550 1551 1551 1552 1554 1554 1556 1557 1558 1559 1559 1560 1561 1562 1564 1565 1567 1568 1569 1570 1570 1570 1571 1571 1571 1572 1574 1575 1575
1505 1508 1510 1512 1514 1515 1517 1520 1522 1525 1527 1528 1530 1530 1531 1532 1534 1535 1536 1537 1538 1539 1540 1540 1541 1542 1542 1543 1544 1545 1546 1547 1548 1549 1550 1551 1551 1552 1553 1555 1556 1557 1558 1558 1559 1560 1560 1562 1564 1565 1566 1568 1568 1569 1570 1570 1571 1571 1571 1571 1573 1574 1574
1503 1506 1508 1511 1513 1514 1516 1518 1521 1524 1526 1528 1530 1531 1531 1532 1533 1534 1535 1536 1537 1538 1540 1540 1541 1542 1542 1543 1544 1545 1546 1547 1548 1549 1549 1550 1551 1552 1553 1555 1556 1557 1557 1558 1559 1559 1560 1562 1563 1565 1566 1567 1568 1568 1569 1569 1570 1571 1571 1571 1572 1573 1573
1502 1505 1508 1510 1512 1513 1514 1516 1519 1522 1525 1527 1529 1530 1531 1533 1533 1533 1534 1535 1536 1538 1539 1540 1541 1542 1542 1543 1544 1544 1545 1546 1548 1548 1549 1550 1551 1552 1553 1554 1556 1556 1557 1558 1559 1560 1561 1562 1563 1564 1566 1567 1567 1567 1567 1568 1570 1570 1571 1571 1571 1572 1572
1502 1505 1507 1509 1510 1512 1513 1515 1518 1521 1524 1526 1528 1529 1531 1532 1532 1533 1533 1535 1536 1538 1539 1540 1541 1542 1542 1543 1544 1544 1545 1546 1547 1548 1549 1550 1550 1551 1553 1554 1555 1556 1557 1558 1559 1560 1561 1562 1563 1564 1565 1566 1566 1566 1567 1568 1570 1570 1570 1571 1571 1571 1572
1500 1503 1505 1506 1508 1510 1511 1513 1516 1519 1522 1525 1527 1529 1530 1531 1532 1532 1533 1535 1536 1537 1539 1540 1541 1542 1542 1543 1543 1544 1545 1546 1547 1548 1549 1549 1550 1551 1553 1554 1555 1556 1557 1558 1559 1561 1561 1562 1563 1563 1564 1565 1566 1566 1567 1568 1569 1570 1570 1570 1570 1570 1571
1497 1500 1501 1503 1505 1507 1509 1512 1514 1518 1521 1523 1526 1528 1529 1530 1531 1532 1533 1534 1536 1537 1538 1540 1541 1541 1542 1543 1543 1544 1545 1546 1547 1548 1549 1549 1550 1550 1551 1552 1554 1555 1557 1559 1560 1561 1562 1562 1563 1563 1564 1565 1566 1566 1567 1568 1569 1569 1569 1569 1570 1570 1570
1496 1498 1500 1502 1503 1505 1507 1510 1513 1516 1519 1522 1525 1527 1528 1529 1530 1531 1532 1534 1535 1537 1538 1539 1540 1541 1542 1542 1543 1544 1545 1546 1547 1548 1549 1549 1549 1549 1549 1551 1553 1555 1557 1559 1560 1561 1562 1562 1563 1563 1564 1565 1565 1566 1567 1568 1568 1569 1569 1569 1569 1569 1569
1494 1496 1499 1502 1503 1504 1507 1510 1512 1515 1518 1521 1524 1525 1526 1528 1529 1531 1532 1533 1535 1537 1538 1539 1540 1541 1541 1542 1543 1544 1544 1546 1547 1548 1549 1549 1550 1550 1551 1552 1554 1556 1557 1559 1560 1561 1562 1563 1563 1564 1564 1565 1565 1566 1566 1567 1568 1568 1568 1568 1568 1568 1568
1491 1494 1497 1501 1504 1505 1507 1509 1511 1514 1517 1520 1522 1523 1525 1527 1529 1530 1532 1533 1535 1536 1537 1539 1540 1540 1541 1542 1543 1544 1544 1545 1547 1548 1549 1549 1550 1551 1552 1553 1554 1556 1557 1558 1560 1561 1562 1563 1563 1564 1565 1565 1566 1566 1567 1567 1567 1567 1567 1567 1567 1567 1567
1488 1492 1495 1500 1503 1504 1506 1509 1510 1512 1515 1518 1520 1522 1524 1526 1528 1530 1532 1533 1534 1535 1537 1538 1539 1540 1541 1541 1542 1543 1544 1545 1546 1548 1549 1549 1550 1551 1552 1553 1554 1555 1557 1558 1559 1560 1561 1562 1563 1564 1564 1565 1566 1566 1567 1567 1567 1567 1567 1567 1566 1567 1566
1486 1490 1494 1498 1501 1503 1505 1509 1509 1510 1514 1517 1519 1521 1523 1525 1527 1529 1531 1532 1534 1535 1536 1537 1539 1540 1541 1541 1542 1543 1544 1545 1546 1547 1548 1549 1550 1551 1552 1553 1554 1555 1556 1557 1558 1559 1560 1561 1562 1563 1563 1564 1565 1566 1566 1566 1566 1566 1566 1566 1566 1566 1566
1485 1489 1493 1496 1500 1501 1504 1508 1508 1509 1512 1515 1518 1520 1522 1524 1526 1528 1530 1531 1533 1534 1535 1537 1538 1539 1540 1541 1542 1543 1544 1545 1546 1547 1548 1549 1550 1551 1552 1553 1554 1555 1556 1557 1558 1558 1559 1560 1561 1561 1562 1563 1563 1564 1565 1565 1565 1565 1565 1565 1565 1565 1565
1485 1488 1491 1495 1498 1500 1503 1507 1507 1508 1512 1514 1517 1519 1521 1523 1525 1527 1529 1530 1532 1533 1535 1537 1538 1539 1540 1541 1542 1543 1544 1545 1546 1547 1548 1549 1550 1551 1552 1552 1553 1554 1555 1556 1557 1558 1558 1559 1560 1560 1561 1562 1562 1563 1563 1564 1564 1564 1564 1564 1564 1564 1563
1486 1488 1491 1494 1497 1499 1503 1506 1506 1508 1511 1514 1516 1519 1520 1523 1525 1526 1528 1530 1531 1533 1535 1536 1537 1538 1539 1540 1541 1543 1544 1545 1546 1547 1548 1548 1549 1550 1551 1552 1553 1553 1554 1555 1555 1557 1557 1558 1559 1560 1560 1561 1562 1562 1562 1562 1562 1563 1563 1562 1562 1562 1562
1486 1488 1491 1494 1496 1499 1503 1506 1507 1508 1511 1513 1515 1518 1520 1522 1524 1526 1527 1529 1531 1533 1534 1536 1537 1538 1539 1540 1541 1542 1543 1544 1545 1546 1547 1548 1548 1549 1550 1551 1552 1552 1553 1554 1555 1556 1557 1557 1557 1558 1559 1560 1561 1561 1561 1561 1561 1561 1561 1560 1560 1560 1559
1486 1489 1491 1494 1496 1500 1503 1506 1508 1509 1511 1512 1514 1517 1519 1522 1524 1525 1527 1529 1530 1532 1534 1536 1537 1538 1538 1539 1540 1541 1543 1544 1544 1545 1546 1547 1548 1548 1549 1550 1550 1551 1552 1553 1554 1555 1556 1556 1556 1557 1558 1558 1559 1559 1559 1559 1559 1559 1559 1558 1558 1557 1557
1488 1489 1491 1494 1498 1500 1502 1504 1507 1510 1511 1512 1513 1516 1518 1521 1523 1525 1526 1528 1530 1532 1533 1535 1536 1537 1538 1539 1540 1540 1542 1543 1543 1543 1544 1545 1546 1547 1548 1548 1549 1550 1551 1552 1553 1554 1554 1554 1555 1555 1555 1556 1556 1556 1556 1556 1556 1556 1556 1556 1555 1555 1554
1492 1490 1492 1494 1498 1501 1502 1503 1506 1508 1510 1511 1513 1515 1518 1519 1522 1524 1526 1527 1529 1531 1532 1533 1534 1536 1537 1538 1539 1539 1540 1541 1541 1543 1544 1545 1545 1546 1546 1547 1548 1549 1550 1550 1551 1551 1552 1552 1552 1552 1553 1553 1553 1553 1553 1553 1553 1553 1553 1553 1553 1552 1552
1498 1496 1496 1496 1499 1502 1504 1506 1507 1508 1510 1511 1512 1514 1517 1518 1520 1523 1525 1526 1528 1530 1532 1533 1534 1535 1536 1537 1538 1538 1539 1539 1540 1541 1543 1544 1545 1545 1545 1546 1548 1548 1549 1549 1549 1549 1549 1549 1549 1549 1550 1550 1550 1550 1551 1550 1550 1550 1550 1550 1550 1549 1549
1502 1502 1502 1503 1503 1505 1507 1508 1510 1511 1512 1513 1514 1515 1516 1518 1520 1522 1524 1526 1528 1530 1531 1532 1533 1534 1535 1536 1536 1537 1538 1538 1539 1540 1541 1543 1544 1545 1545 1546 1546 1547 1547 1547 1547 1547 1546 1546 1546 1546 1546 1546 1547 1547 1548 1548 1548 1547 1547 1547 1546 1546 1545
1504 1505 1506 1508 1508 1509 1510 1511 1513 1514 1514 1515 1516 1516 1517 1519 1520 1522 1524 1526 1528 1530 1531 1532 1533 1534 1535 1535 1536 1536 1537 1538 1539 1540 1541 1541 1542 1543 1544 1544 1545 1545 1545 1545 1544 1544 1543 1543 1543 1542 1542 1543 1544 1544 1545 1545 1545 1545 1544 1544 1543 1543 1542
1506 1507 1508 1510 1510 1511 1513 1514 1515 1515 1516 1516 1516 1517 1518 1520 1521 1522 1524 1526 1528 1529 1530 1532 1533 1533 1534 1534 1535 1535 1536 1537 1538 1539 1540 1540 1541 1541 1542 1542 1543 1543 1543 1542 1542 1541 1541 1541 1540 1540 1540 1540 1541 1542 1542 1543 1543 1542 1542 1541 1541 1541 1540
1509 1509 1510 1510 1511 1512 1513 1515 1516 1517 1517 1517 1517 1518 1519 1521 1522 1523 1525 1527 1528 1529 1530 1531 1532 1532 1533 1533 1534 1534 1535 1536 1537 1538 1538 1539 1539 1539 1540 1540 1540 1540 1540 1540 1540 1539 1539 1539 1538 1538 1538 1539 1539 1540 1540 1540 1540 1540 1540 1539 1539 1539 1538